����������;��������(kWh)
2019-08-05 00:00;74,8
2019-08-05 00:15;76,15
2019-08-05 00:30;74,75
2019-08-05 00:45;76,95
2019-08-05 01:00;79,4
2019-08-05 01:15;77,8
2019-08-05 01:30;77,5
2019-08-05 01:45;78,35
2019-08-05 02:00;76,1
2019-08-05 02:15;76,55
2019-08-05 02:30;78
2019-08-05 02:45;76,8
2019-08-05 03:00;75,95
2019-08-05 03:15;79,5
2019-08-05 03:30;78
2019-08-05 03:45;76,75
2019-08-05 04:00;75,4
2019-08-05 04:15;75,05
2019-08-05 04:30;73,7
2019-08-05 04:45;74,55
2019-08-05 05:00;73,85
2019-08-05 05:15;73,6
2019-08-05 05:30;75,7
2019-08-05 05:45;72,8
2019-08-05 06:00;70,4
2019-08-05 06:15;71
2019-08-05 06:30;70,5
2019-08-05 06:45;66,3
2019-08-05 07:00;68,4
2019-08-05 07:15;67,3
2019-08-05 07:30;66,2
2019-08-05 07:45;67,8
2019-08-05 08:00;72
2019-08-05 08:15;73,5
2019-08-05 08:30;74,3
2019-08-05 08:45;89,7
2019-08-05 09:00;90
2019-08-05 09:15;91,7
2019-08-05 09:30;96,45
2019-08-05 09:45;95,45
2019-08-05 10:00;97,5
2019-08-05 10:15;97,7
2019-08-05 10:30;98,8
2019-08-05 10:45;99,65
2019-08-05 11:00;101,1
2019-08-05 11:15;100,75
2019-08-05 11:30;102,4
2019-08-05 11:45;107,6
2019-08-05 12:00;105,2
2019-08-05 12:15;106
2019-08-05 12:30;107,85
2019-08-05 12:45;104,65
2019-08-05 13:00;106,1
2019-08-05 13:15;21,05
2019-08-05 13:30;51,75
2019-08-05 13:45;109,75
2019-08-05 14:00;106,15
2019-08-05 14:15;107
2019-08-05 14:30;107,15
2019-08-05 14:45;104,35
2019-08-05 15:00;103,95
2019-08-05 15:15;105,05
2019-08-05 15:30;102,95
2019-08-05 15:45;102,05
2019-08-05 16:00;101,55
2019-08-05 16:15;96,7
2019-08-05 16:30;92,9
2019-08-05 16:45;93,6
2019-08-05 17:00;92,65
2019-08-05 17:15;92,6
2019-08-05 17:30;91,9
2019-08-05 17:45;94,25
2019-08-05 18:00;96
2019-08-05 18:15;94,3
2019-08-05 18:30;92,75
2019-08-05 18:45;96,35
2019-08-05 19:00;91,65
2019-08-05 19:15;94,25
2019-08-05 19:30;96,85
2019-08-05 19:45;95,9
2019-08-05 20:00;96,4
2019-08-05 20:15;95,7
2019-08-05 20:30;93,5
2019-08-05 20:45;98,2
2019-08-05 21:00;96,5
2019-08-05 21:15;95,9
2019-08-05 21:30;97,75
2019-08-05 21:45;97,1
2019-08-05 22:00;90,7
2019-08-05 22:15;88,5
2019-08-05 22:30;81,95
2019-08-05 22:45;79,6
2019-08-05 23:00;89,1
2019-08-05 23:15;83,75
2019-08-05 23:30;85,05
2019-08-05 23:45;90,1
2019-08-06 00:00;76,3
2019-08-06 00:15;75,25
2019-08-06 00:30;76,5
2019-08-06 00:45;76,3
2019-08-06 01:00;74,75
2019-08-06 01:15;74,1
2019-08-06 01:30;74,3
2019-08-06 01:45;73,5
2019-08-06 02:00;73
2019-08-06 02:15;73,6
2019-08-06 02:30;73,3
2019-08-06 02:45;73,1
2019-08-06 03:00;74,3
2019-08-06 03:15;76,05
2019-08-06 03:30;74,1
2019-08-06 03:45;75,25
2019-08-06 04:00;75,1
2019-08-06 04:15;75,9
2019-08-06 04:30;75,2
2019-08-06 04:45;74,95
2019-08-06 05:00;75,45
2019-08-06 05:15;75,2
2019-08-06 05:30;74,55
2019-08-06 05:45;75,05
2019-08-06 06:00;75,75
2019-08-06 06:15;71,15
2019-08-06 06:30;71,05
2019-08-06 06:45;69,05
2019-08-06 07:00;69
2019-08-06 07:15;67,65
2019-08-06 07:30;68,05
2019-08-06 07:45;68,8
2019-08-06 08:00;67,7
2019-08-06 08:15;70,7
2019-08-06 08:30;70,85
2019-08-06 08:45;77
2019-08-06 09:00;75,35
2019-08-06 09:15;74,9
2019-08-06 09:30;87,75
2019-08-06 09:45;89,65
2019-08-06 10:00;94,85
2019-08-06 10:15;101,5
2019-08-06 10:30;99,35
2019-08-06 10:45;99,1
2019-08-06 11:00;102,7
2019-08-06 11:15;100,8
2019-08-06 11:30;102,8
2019-08-06 11:45;105,2
2019-08-06 12:00;106,4
2019-08-06 12:15;105,1
2019-08-06 12:30;111,1
2019-08-06 12:45;108,35
2019-08-06 13:00;109,45
2019-08-06 13:15;108,3
2019-08-06 13:30;107,2
2019-08-06 13:45;106,4
2019-08-06 14:00;108,3
2019-08-06 14:15;105,2
2019-08-06 14:30;104,6
2019-08-06 14:45;105
2019-08-06 15:00;103,6
2019-08-06 15:15;96,8
2019-08-06 15:30;94,55
2019-08-06 15:45;93,35
2019-08-06 16:00;93,5
2019-08-06 16:15;91,65
2019-08-06 16:30;88,5
2019-08-06 16:45;84,95
2019-08-06 17:00;87,25
2019-08-06 17:15;84,65
2019-08-06 17:30;86,75
2019-08-06 17:45;87,8
2019-08-06 18:00;82,9
2019-08-06 18:15;83,85
2019-08-06 18:30;94,6
2019-08-06 18:45;93,4
2019-08-06 19:00;91,5
2019-08-06 19:15;94,85
2019-08-06 19:30;94,8
2019-08-06 19:45;93,35
2019-08-06 20:00;92,9
2019-08-06 20:15;90,55
2019-08-06 20:30;91,1
2019-08-06 20:45;93,5
2019-08-06 21:00;92,45
2019-08-06 21:15;92,15
2019-08-06 21:30;94,1
2019-08-06 21:45;94,35
2019-08-06 22:00;90,75
2019-08-06 22:15;89,95
2019-08-06 22:30;87,3
2019-08-06 22:45;75,7
2019-08-06 23:00;81,8
2019-08-06 23:15;79,3
2019-08-06 23:30;83,3
2019-08-06 23:45;86,2
2019-08-07 00:00;75,55
2019-08-07 00:15;77,35
2019-08-07 00:30;77
2019-08-07 00:45;76,2
2019-08-07 01:00;77,1
2019-08-07 01:15;77,8
2019-08-07 01:30;78,4
2019-08-07 01:45;74,2
2019-08-07 02:00;75,6
2019-08-07 02:15;75,65
2019-08-07 02:30;75
2019-08-07 02:45;74,25
2019-08-07 03:00;76,45
2019-08-07 03:15;75,95
2019-08-07 03:30;76,75
2019-08-07 03:45;76,2
2019-08-07 04:00;74,55
2019-08-07 04:15;73,65
2019-08-07 04:30;72,8
2019-08-07 04:45;73,55
2019-08-07 05:00;73,6
2019-08-07 05:15;73,9
2019-08-07 05:30;72,35
2019-08-07 05:45;72,9
2019-08-07 06:00;72,2
2019-08-07 06:15;71,85
2019-08-07 06:30;67,55
2019-08-07 06:45;65,65
2019-08-07 07:00;66,6
2019-08-07 07:15;66,2
2019-08-07 07:30;64,3
2019-08-07 07:45;65,2
2019-08-07 08:00;68,2
2019-08-07 08:15;67,6
2019-08-07 08:30;69,9
2019-08-07 08:45;71,35
2019-08-07 09:00;70,15
2019-08-07 09:15;70,35
2019-08-07 09:30;73,9
2019-08-07 09:45;84,25
2019-08-07 10:00;91,6
2019-08-07 10:15;92,7
2019-08-07 10:30;94
2019-08-07 10:45;92,5
2019-08-07 11:00;96,05
2019-08-07 11:15;95,5
2019-08-07 11:30;96,8
2019-08-07 11:45;97,75
2019-08-07 12:00;100,9
2019-08-07 12:15;100,15
2019-08-07 12:30;100,65
2019-08-07 12:45;103,5
2019-08-07 13:00;99,1
2019-08-07 13:15;99
2019-08-07 13:30;101,4
2019-08-07 13:45;100,35
2019-08-07 14:00;101
2019-08-07 14:15;99,75
2019-08-07 14:30;96,7
2019-08-07 14:45;98
2019-08-07 15:00;95,5
2019-08-07 15:15;96,5
2019-08-07 15:30;91,3
2019-08-07 15:45;87,7
2019-08-07 16:00;95,8
2019-08-07 16:15;94,4
2019-08-07 16:30;96,8
2019-08-07 16:45;93,5
2019-08-07 17:00;93,25
2019-08-07 17:15;94,65
2019-08-07 17:30;94,4
2019-08-07 17:45;95,05
2019-08-07 18:00;94,3
2019-08-07 18:15;86
2019-08-07 18:30;80,45
2019-08-07 18:45;83,25
2019-08-07 19:00;81,2
2019-08-07 19:15;84,9
2019-08-07 19:30;86,65
2019-08-07 19:45;85,6
2019-08-07 20:00;84,4
2019-08-07 20:15;84,05
2019-08-07 20:30;80,2
2019-08-07 20:45;80,15
2019-08-07 21:00;84,3
2019-08-07 21:15;80
2019-08-07 21:30;81,65
2019-08-07 21:45;82,15
2019-08-07 22:00;80,2
2019-08-07 22:15;77,3
2019-08-07 22:30;80,05
2019-08-07 22:45;77,7
2019-08-07 23:00;86,75
2019-08-07 23:15;82,05
2019-08-07 23:30;83,35
2019-08-07 23:45;90,1
2019-08-08 00:00;75,05
2019-08-08 00:15;75,15
2019-08-08 00:30;74,05
2019-08-08 00:45;77,35
2019-08-08 01:00;76
2019-08-08 01:15;74,3
2019-08-08 01:30;74
2019-08-08 01:45;75,3
2019-08-08 02:00;74,55
2019-08-08 02:15;73,65
2019-08-08 02:30;73,2
2019-08-08 02:45;76,05
2019-08-08 03:00;74,15
2019-08-08 03:15;75,2
2019-08-08 03:30;74,9
2019-08-08 03:45;75,8
2019-08-08 04:00;76,65
2019-08-08 04:15;75,05
2019-08-08 04:30;75,45
2019-08-08 04:45;75,3
2019-08-08 05:00;75,7
2019-08-08 05:15;75,35
2019-08-08 05:30;74,6
2019-08-08 05:45;76,2
2019-08-08 06:00;73,25
2019-08-08 06:15;73,95
2019-08-08 06:30;70,7
2019-08-08 06:45;68,85
2019-08-08 07:00;67,75
2019-08-08 07:15;66,6
2019-08-08 07:30;68,6
2019-08-08 07:45;66,9
2019-08-08 08:00;68,2
2019-08-08 08:15;70,3
2019-08-08 08:30;81,35
2019-08-08 08:45;82,1
2019-08-08 09:00;81,35
2019-08-08 09:15;85,1
2019-08-08 09:30;87,05
2019-08-08 09:45;91,75
2019-08-08 10:00;93,25
2019-08-08 10:15;96,15
2019-08-08 10:30;95,9
2019-08-08 10:45;93,9
2019-08-08 11:00;93,85
2019-08-08 11:15;95,75
2019-08-08 11:30;95,75
2019-08-08 11:45;97,35
2019-08-08 12:00;98,1
2019-08-08 12:15;96,2
2019-08-08 12:30;96,05
2019-08-08 12:45;99,25
2019-08-08 13:00;96,1
2019-08-08 13:15;97,2
2019-08-08 13:30;98,45
2019-08-08 13:45;97,15
2019-08-08 14:00;99,25
2019-08-08 14:15;102,15
2019-08-08 14:30;97,9
2019-08-08 14:45;98,9
2019-08-08 15:00;98,6
2019-08-08 15:15;100,05
2019-08-08 15:30;90,5
2019-08-08 15:45;85,05
2019-08-08 16:00;86,1
2019-08-08 16:15;85,6
2019-08-08 16:30;83,8
2019-08-08 16:45;84,35
2019-08-08 17:00;83,65
2019-08-08 17:15;80,95
2019-08-08 17:30;84,3
2019-08-08 17:45;83,4
2019-08-08 18:00;80,55
2019-08-08 18:15;81,8
2019-08-08 18:30;76,75
2019-08-08 18:45;77,2
2019-08-08 19:00;77,3
2019-08-08 19:15;78,95
2019-08-08 19:30;85,8
2019-08-08 19:45;91,2
2019-08-08 20:00;91,85
2019-08-08 20:15;91,85
2019-08-08 20:30;87,55
2019-08-08 20:45;79,55
2019-08-08 21:00;81,1
2019-08-08 21:15;81,15
2019-08-08 21:30;80,45
2019-08-08 21:45;82,1
2019-08-08 22:00;80,95
2019-08-08 22:15;79,1
2019-08-08 22:30;77,1
2019-08-08 22:45;79,75
2019-08-08 23:00;84
2019-08-08 23:15;79,9
2019-08-08 23:30;81,9
2019-08-08 23:45;88,6
2019-08-09 00:00;74,65
2019-08-09 00:15;74,75
2019-08-09 00:30;75
2019-08-09 00:45;76
2019-08-09 01:00;76,5
2019-08-09 01:15;77,05
2019-08-09 01:30;74,65
2019-08-09 01:45;77,1
2019-08-09 02:00;75,5
2019-08-09 02:15;76,3
2019-08-09 02:30;76,6
2019-08-09 02:45;76,45
2019-08-09 03:00;75,65
2019-08-09 03:15;75,8
2019-08-09 03:30;77,15
2019-08-09 03:45;78,35
2019-08-09 04:00;77
2019-08-09 04:15;78,1
2019-08-09 04:30;73,6
2019-08-09 04:45;74,9
2019-08-09 05:00;72,8
2019-08-09 05:15;73,3
2019-08-09 05:30;73,05
2019-08-09 05:45;73,9
2019-08-09 06:00;70,05
2019-08-09 06:15;69,2
2019-08-09 06:30;67,55
2019-08-09 06:45;67,95
2019-08-09 07:00;65,65
2019-08-09 07:15;66,2
2019-08-09 07:30;66,75
2019-08-09 07:45;69,7
2019-08-09 08:00;67,4
2019-08-09 08:15;70,6
2019-08-09 08:30;73
2019-08-09 08:45;79,4
2019-08-09 09:00;73,05
2019-08-09 09:15;75,25
2019-08-09 09:30;80,65
2019-08-09 09:45;85
2019-08-09 10:00;84,9
2019-08-09 10:15;85,45
2019-08-09 10:30;85,45
2019-08-09 10:45;85,8
2019-08-09 11:00;85,9
2019-08-09 11:15;88,05
2019-08-09 11:30;93,2
2019-08-09 11:45;90,45
2019-08-09 12:00;90,95
2019-08-09 12:15;90,3
2019-08-09 12:30;90,5
2019-08-09 12:45;93,7
2019-08-09 13:00;96,55
2019-08-09 13:15;93,55
2019-08-09 13:30;93,75
2019-08-09 13:45;94
2019-08-09 14:00;94,45
2019-08-09 14:15;90,9
2019-08-09 14:30;95,4
2019-08-09 14:45;94
2019-08-09 15:00;94,6
2019-08-09 15:15;95,7
2019-08-09 15:30;86,5
2019-08-09 15:45;85,4
2019-08-09 16:00;85,65
2019-08-09 16:15;83,8
2019-08-09 16:30;83
2019-08-09 16:45;84,4
2019-08-09 17:00;81,7
2019-08-09 17:15;80,8
2019-08-09 17:30;79,2
2019-08-09 17:45;85,55
2019-08-09 18:00;81,4
2019-08-09 18:15;80,75
2019-08-09 18:30;78,35
2019-08-09 18:45;78,3
2019-08-09 19:00;78,35
2019-08-09 19:15;78,25
2019-08-09 19:30;79,4
2019-08-09 19:45;80,8
2019-08-09 20:00;79,85
2019-08-09 20:15;80,3
2019-08-09 20:30;82,65
2019-08-09 20:45;83,45
2019-08-09 21:00;93,7
2019-08-09 21:15;94,6
2019-08-09 21:30;84,8
2019-08-09 21:45;91,95
2019-08-09 22:00;92,1
2019-08-09 22:15;82,6
2019-08-09 22:30;78,8
2019-08-09 22:45;78,65
2019-08-09 23:00;83,6
2019-08-09 23:15;79,7
2019-08-09 23:30;82,35
2019-08-09 23:45;88,45
2019-08-10 00:00;75,05
2019-08-10 00:15;75,9
2019-08-10 00:30;74,9
2019-08-10 00:45;74,55
2019-08-10 01:00;75,15
2019-08-10 01:15;74,9
2019-08-10 01:30;74,8
2019-08-10 01:45;71,3
2019-08-10 02:00;70,9
2019-08-10 02:15;73,3
2019-08-10 02:30;72
2019-08-10 02:45;71,65
2019-08-10 03:00;70,2
2019-08-10 03:15;72,65
2019-08-10 03:30;71,85
2019-08-10 03:45;71,8
2019-08-10 04:00;74,15
2019-08-10 04:15;74,65
2019-08-10 04:30;73,7
2019-08-10 04:45;73,8
2019-08-10 05:00;74,4
2019-08-10 05:15;73,15
2019-08-10 05:30;73,3
2019-08-10 05:45;74,45
2019-08-10 06:00;71,15
2019-08-10 06:15;69,85
2019-08-10 06:30;70,6
2019-08-10 06:45;67,7
2019-08-10 07:00;67,8
2019-08-10 07:15;67,55
2019-08-10 07:30;68,25
2019-08-10 07:45;68,65
2019-08-10 08:00;68,05
2019-08-10 08:15;68,7
2019-08-10 08:30;68,8
2019-08-10 08:45;71,25
2019-08-10 09:00;71,5
2019-08-10 09:15;70,15
2019-08-10 09:30;71,45
2019-08-10 09:45;73,05
2019-08-10 10:00;71,15
2019-08-10 10:15;71,8
2019-08-10 10:30;67
2019-08-10 10:45;66,2
2019-08-10 11:00;67
2019-08-10 11:15;68,4
2019-08-10 11:30;67,75
2019-08-10 11:45;69,4
2019-08-10 12:00;68,25
2019-08-10 12:15;69,55
2019-08-10 12:30;71,3
2019-08-10 12:45;73
2019-08-10 13:00;71,05
2019-08-10 13:15;70,7
2019-08-10 13:30;70,85
2019-08-10 13:45;71,7
2019-08-10 14:00;69,75
2019-08-10 14:15;72,4
2019-08-10 14:30;69,7
2019-08-10 14:45;69,55
2019-08-10 15:00;71,7
2019-08-10 15:15;71,4
2019-08-10 15:30;71,1
2019-08-10 15:45;73,5
2019-08-10 16:00;75,15
2019-08-10 16:15;72,6
2019-08-10 16:30;74,3
2019-08-10 16:45;72,6
2019-08-10 17:00;71,15
2019-08-10 17:15;71,15
2019-08-10 17:30;73,35
2019-08-10 17:45;72,8
2019-08-10 18:00;72,75
2019-08-10 18:15;74,5
2019-08-10 18:30;73,3
2019-08-10 18:45;71,7
2019-08-10 19:00;73
2019-08-10 19:15;74,8
2019-08-10 19:30;75,95
2019-08-10 19:45;77,25
2019-08-10 20:00;76,05
2019-08-10 20:15;74,85
2019-08-10 20:30;78,35
2019-08-10 20:45;79,65
2019-08-10 21:00;78,7
2019-08-10 21:15;79,15
2019-08-10 21:30;78,35
2019-08-10 21:45;78,3
2019-08-10 22:00;75,9
2019-08-10 22:15;76,15
2019-08-10 22:30;74,1
2019-08-10 22:45;75,55
2019-08-10 23:00;82,3
2019-08-10 23:15;77,85
2019-08-10 23:30;78,6
2019-08-10 23:45;83,65
2019-08-11 00:00;73,25
2019-08-11 00:15;73,05
2019-08-11 00:30;74,8
2019-08-11 00:45;72,95
2019-08-11 01:00;73,45
2019-08-11 01:15;74,55
2019-08-11 01:30;72
2019-08-11 01:45;71,5
2019-08-11 02:00;71,35
2019-08-11 02:15;69,4
2019-08-11 02:30;69,65
2019-08-11 02:45;69,6
2019-08-11 03:00;71,2
2019-08-11 03:15;71,2
2019-08-11 03:30;71,65
2019-08-11 03:45;74,35
2019-08-11 04:00;71,15
2019-08-11 04:15;71,9
2019-08-11 04:30;73,15
2019-08-11 04:45;72
2019-08-11 05:00;72,1
2019-08-11 05:15;72,45
2019-08-11 05:30;71,9
2019-08-11 05:45;73,5
2019-08-11 06:00;69,8
2019-08-11 06:15;68,3
2019-08-11 06:30;68,2
2019-08-11 06:45;66,6
2019-08-11 07:00;64,6
2019-08-11 07:15;63,1
2019-08-11 07:30;64,7
2019-08-11 07:45;65,9
2019-08-11 08:00;64,55
2019-08-11 08:15;63,05
2019-08-11 08:30;65,05
2019-08-11 08:45;63,95
2019-08-11 09:00;64,5
2019-08-11 09:15;66,9
2019-08-11 09:30;65,05
2019-08-11 09:45;64,4
2019-08-11 10:00;66,8
2019-08-11 10:15;64,8
2019-08-11 10:30;65,95
2019-08-11 10:45;66,9
2019-08-11 11:00;64,35
2019-08-11 11:15;63,95
2019-08-11 11:30;67,3
2019-08-11 11:45;66,6
2019-08-11 12:00;67,65
2019-08-11 12:15;70,25
2019-08-11 12:30;68,35
2019-08-11 12:45;69,2
2019-08-11 13:00;70,45
2019-08-11 13:15;68,2
2019-08-11 13:30;68,8
2019-08-11 13:45;69,65
2019-08-11 14:00;67,95
2019-08-11 14:15;68,25
2019-08-11 14:30;69,95
2019-08-11 14:45;69,2
2019-08-11 15:00;70
2019-08-11 15:15;69,4
2019-08-11 15:30;70,4
2019-08-11 15:45;69,65
2019-08-11 16:00;68
2019-08-11 16:15;70
2019-08-11 16:30;66,85
2019-08-11 16:45;67,7
2019-08-11 17:00;67,75
2019-08-11 17:15;68,6
2019-08-11 17:30;66,5
2019-08-11 17:45;68,15
2019-08-11 18:00;68,35
2019-08-11 18:15;69
2019-08-11 18:30;68,6
2019-08-11 18:45;71
2019-08-11 19:00;69,9
2019-08-11 19:15;72
2019-08-11 19:30;76,05
2019-08-11 19:45;74,2
2019-08-11 20:00;73,7
2019-08-11 20:15;71,85
2019-08-11 20:30;72
2019-08-11 20:45;77,2
2019-08-11 21:00;75,3
2019-08-11 21:15;74,55
2019-08-11 21:30;76,6
2019-08-11 21:45;79,3
2019-08-11 22:00;73,75
2019-08-11 22:15;72,15
2019-08-11 22:30;70,6
2019-08-11 22:45;72,7
2019-08-11 23:00;77
2019-08-11 23:15;74,75
2019-08-11 23:30;78,25
2019-08-11 23:45;84,8

